Temp
9 9 8 8 8 8 9 8 9 9 9 9 9 9 9 9 9 10 9 10 10 10 10 9 9 9 10 10 10 10 10 10 10 9 9 9 10 10 10 9 9 9 9
9 9 9 8 8 8 8 9 8 9 9 9 9 9 9 9 9 9 9 10 10 10 9 9 9 9 10 10 10 10 10 9 10 10 10 10 10 9 10 9 9 9 9
9 9 9 8 8 9 9 8 9 9 9 9 9 9 9 9 9 9 9 9 9 9 9 9 9 9 9 10 10 10 10 10 10 10 10 10 10 10 9 9 9 9 10
10 10 9 9 9 9 9 9 9 9 9 9 9 9 9 9 9 9 9 9 9 9 9 9 9 10 10 10 10 10 10 10 10 10 10 10 10 10 10 9 9 9 9
10 9 9 9 9 9 9 9 9 9 9 9 9 9 9 9 9 9 9 9 9 9 9 10 9 9 10 10 10 10 10 10 10 10 10 10 10 10 9 10 10 9 9
10 10 9 9 9 9 9 10 10 9 9 9 9 9 9 9 9 9 9 10 10 9 9 9 9 10 9 10 10 10 10 10 10 9 9 10 10 10 9 9 9 9 9
11 11 10 9 9 9 9 9 9 9 9 9 9 9 9 9 10 10 9 10 10 10 10 9 10 9 9 9 10 10 10 10 10 10 9 10 9 9 9 9 8 8 8
11 11 11 10 10 10 9 9 9 9 9 9 9 9 9 10 10 10 9 9 9 10 9 9 9 9 9 9 9 10 10 10 10 10 10 10 9 9 9 9 9 9 8
10 10 10 10 10 10 9 9 9 10 9 9 9 8 8 9 9 9 9 9 9 9 9 9 9 9 9 9 9 9 10 10 10 10 10 10 9 9 9 9 9 9 9
10 10 10 10 10 10 10 10 9 9 10 9 9 8 8 9 9 9 9 9 9 9 9 9 9 9 9 9 9 9 9 9 9 9 10 9 9 9 9 9 9 9 8
10 10 10 10 10 10 10 10 9 9 9 9 9 9 9 8 8 8 9 8 9 9 9 9 9 10 10 9 9 9 9 9 9 9 9 9 9 9 9 9 8 8 7
10 9 9 9 9 9 9 10 9 9 9 9 9 9 8 8 8 8 8 8 8 8 9 8 9 9 9 8 8 9 9 9 8 8 8 9 9 9 9 8 8 8 7
10 9 9 9 9 10 9 9 9 9 8 8 8 8 8 8 8 8 8 8 8 8 8 8 8 9 9 9 8 8 8 8 8 8 8 8 8 8 8 8 8 8 8
9 9 9 9 9 9 9 9 9 9 9 8 8 8 8 8 8 8 8 8 8 8 8 8 9 9 9 9 8 7 8 8 8 9 9 9 9 9 8 8 8 8 7
9 9 9 9 9 9 9 9 9 8 8 8 8 8 8 8 8 8 8 8 8 8 8 8 8 8 8 9 9 9 9 9 9 9 9 8 7 8 8 8 7 8 7
9 9 8 8 9 9 9 8 8 8 8 7 7 7 7 7 7 7 7 7 7 7 7 7 7 7 8 8 9 9 9 8 9 8 8 8 8 8 8 8 7 8 7
9 8 8 8 8 8 8 8 7 7 7 6 6 6 6 6 6 6 6 6 6 6 6 5 6 6 7 7 7 7 7 7 7 7 6 7 7 7 7 8 7 5 5
8 8 8 8 8 8 7 7 7 7 6 6 5 5 5 5 5 5 5 5 5 5 5 5 5 5 5 5 6 6 5 6 6 5 5 5 5 5 5 5 4 4 3
7 7 7 7 7 7 7 7 6 6 6 6 5 5 4 4 4 5 5 5 5 5 5 5 5 5 4 4 4 4 3 3 3 3 3 3 3 2 2 2 2 2 2
7 6 7 6 6 6 6 6 6 6 6 6 6 6 6 5 4 5 5 5 4 5 5 5 4 4 4 3 3 3 3 2 3 3 2 1 1 1 1 1 1 0 0
6 6 6 6 6 6 6 6 6 6 6 6 6 6 6 5 5 5 5 5 5 4 4 4 4 4 3 3 3 3 2 2 2 2 2 2 2 2 2 2 2 2 2
5 6 6 6 6 6 6 6 6 6 6 6 6 6 6 6 6 5 5 5 5 5 4 4 4 3 3 3 3 3 3 2 2 3 3 3 3 2 2 2 2 2 2
5 6 6 6 6 5 6 6 6 6 6 6 6 6 6 6 6 6 6 6 5 5 5 5 4 4 3 3 3 3 2 3 3 3 3 3 3 2 2 2 2 2 0
5 5 6 6 5 5 5 6 6 6 6 5 5 5 6 6 6 6 6 6 5 5 5 5 5 4 4 3 3 3 3 3 2 3 2 2 2 2 1 1 1 0 0
6 6 6 6 5 5 5 5 5 5 5 5 5 5 5 6 6 6 6 5 5 5 5 4 4 4 3 3 3 3 3 3 3 2 2 2 2 1 1 1 0 1 0
6 6 6 6 6 5 5 3 4 2 1 1 2 4 5 5 6 6 6 5 5 5 5 4 4 4 4 4 4 4 3 3 3 3 2 2 2 2 1 1 1 -1 -2
Height
3180 3182 3183 3186 3187 3189 3190 3192 3194 3195 3197 3198 3201 3203 3204 3204 3205 3207 3208 3210 3211 3212 3212 3213 3213 3214 3214 3216 3217 3217 3217 3218 3218 3217 3216 3216 3216 3216 3216 3215 3215 3214 3214
3176 3178 3180 3181 3183 3184 3187 3189 3190 3191 3193 3195 3196 3199 3200 3201 3202 3202 3204 3205 3207 3208 3210 3209 3211 3211 3212 3212 3213 3214 3214 3214 3215 3214 3213 3213 3213 3213 3213 3213 3213 3212 3211
3172 3174 3176 3177 3179 3181 3183 3184 3186 3188 3189 3190 3192 3195 3196 3197 3198 3200 3201 3202 3203 3205 3205 3206 3207 3207 3208 3208 3209 3210 3211 3210 3210 3211 3210 3210 3210 3210 3210 3210 3209 3209 3208
3168 3170 3171 3173 3175 3176 3178 3180 3181 3184 3185 3186 3187 3189 3190 3192 3194 3195 3196 3197 3199 3200 3201 3202 3203 3204 3204 3205 3205 3206 3206 3206 3206 3206 3206 3206 3206 3206 3206 3206 3205 3204 3204
3164 3165 3167 3168 3170 3172 3173 3174 3176 3178 3180 3181 3183 3184 3185 3186 3188 3190 3192 3193 3193 3195 3196 3196 3198 3199 3200 3200 3200 3201 3201 3201 3201 3201 3201 3202 3202 3202 3201 3200 3199 3199 3198
3160 3161 3161 3162 3163 3166 3167 3168 3170 3171 3173 3175 3176 3178 3179 3181 3182 3184 3186 3187 3189 3190 3192 3193 3193 3193 3195 3195 3196 3196 3196 3196 3196 3196 3196 3196 3196 3195 3195 3194 3193 3193 3193
3155 3156 3156 3156 3158 3160 3161 3162 3164 3165 3166 3167 3169 3170 3172 3174 3176 3178 3179 3181 3183 3185 3186 3186 3187 3188 3188 3189 3189 3190 3190 3190 3190 3190 3190 3191 3190 3190 3189 3188 3188 3186 3186
3152 3152 3152 3152 3153 3155 3155 3157 3158 3159 3159 3159 3159 3161 3162 3165 3169 3171 3173 3174 3176 3177 3179 3180 3180 3182 3183 3183 3183 3183 3183 3182 3183 3183 3183 3183 3183 3182 3182 3181 3180 3179 3178
3149 3149 3149 3148 3149 3149 3150 3152 3152 3152 3152 3150 3150 3150 3152 3157 3161 3163 3165 3167 3168 3170 3171 3172 3172 3174 3175 3177 3175 3175 3175 3175 3175 3176 3175 3174 3175 3174 3173 3172 3172 3171 3170
3146 3145 3144 3144 3144 3144 3145 3146 3146 3146 3146 3144 3142 3145 3147 3150 3153 3155 3157 3160 3161 3162 3164 3165 3165 3166 3166 3167 3166 3166 3166 3167 3167 3165 3168 3167 3166 3166 3166 3164 3163 3162 3161
3142 3141 3140 3139 3139 3139 3139 3139 3140 3140 3139 3139 3139 3140 3142 3143 3144 3149 3151 3153 3154 3155 3157 3157 3155 3156 3158 3158 3157 3157 3158 3157 3158 3157 3157 3158 3157 3157 3157 3156 3153 3152 3149
3138 3137 3136 3135 3134 3134 3134 3134 3135 3135 3136 3136 3136 3136 3137 3138 3139 3142 3145 3147 3148 3149 3149 3149 3148 3148 3147 3148 3148 3148 3148 3147 3147 3147 3147 3148 3147 3145 3146 3145 3143 3141 3136
3133 3132 3131 3130 3130 3129 3129 3130 3130 3130 3131 3132 3133 3133 3134 3134 3135 3137 3139 3140 3141 3141 3140 3140 3139 3138 3136 3134 3134 3136 3136 3136 3135 3135 3136 3136 3136 3135 3132 3130 3130 3129 3126
3128 3128 3127 3125 3124 3124 3124 3124 3125 3125 3126 3127 3128 3129 3130 3131 3132 3132 3133 3133 3134 3133 3133 3132 3130 3128 3126 3123 3122 3123 3124 3124 3123 3123 3121 3119 3121 3121 3120 3119 3118 3115 3114
3124 3123 3121 3120 3120 3120 3120 3120 3120 3120 3121 3123 3123 3125 3125 3126 3127 3127 3128 3129 3128 3127 3126 3124 3122 3120 3118 3116 3115 3113 3112 3111 3109 3108 3107 3106 3106 3106 3106 3106 3104 3101 3101
3118 3118 3117 3115 3115 3115 3116 3116 3116 3116 3117 3118 3119 3120 3121 3122 3122 3123 3123 3124 3123 3122 3120 3118 3115 3113 3110 3107 3105 3102 3101 3100 3098 3096 3095 3095 3094 3095 3095 3094 3095 3094 3093
3113 3113 3112 3111 3110 3111 3111 3111 3111 3112 3113 3114 3115 3116 3117 3118 3118 3119 3119 3119 3118 3117 3114 3112 3110 3108 3105 3102 3099 3096 3093 3091 3088 3086 3086 3085 3084 3085 3085 3086 3084 3085 3087
3110 3109 3108 3107 3106 3106 3107 3107 3108 3109 3110 3111 3112 3112 3113 3114 3114 3114 3115 3114 3113 3112 3110 3108 3106 3104 3101 3098 3096 3093 3090 3087 3084 3082 3080 3078 3078 3077 3079 3080 3081 3083 3085
3107 3105 3103 3103 3103 3103 3104 3105 3105 3106 3106 3108 3109 3109 3109 3110 3110 3111 3111 3111 3110 3108 3107 3105 3103 3101 3098 3096 3094 3092 3089 3087 3084 3082 3080 3078 3078 3077 3077 3078 3080 3083 3084
3103 3101 3099 3099 3100 3100 3101 3102 3102 3103 3104 3104 3105 3105 3105 3105 3105 3106 3106 3105 3105 3104 3102 3101 3099 3098 3096 3095 3093 3091 3090 3088 3085 3083 3082 3080 3079 3079 3079 3079 3080 3082 3085
3098 3096 3096 3096 3097 3096 3097 3099 3100 3100 3101 3101 3101 3101 3101 3101 3100 3100 3100 3100 3100 3099 3098 3097 3096 3095 3093 3092 3090 3089 3087 3085 3085 3084 3083 3083 3082 3081 3080 3081 3081 3083 3084
3093 3091 3092 3093 3093 3094 3096 3097 3097 3098 3098 3098 3098 3097 3098 3097 3096 3096 3095 3095 3094 3093 3093 3092 3092 3091 3089 3088 3087 3086 3085 3084 3083 3082 3082 3082 3081 3080 3080 3080 3081 3082 3083
3087 3087 3088 3089 3089 3091 3092 3093 3094 3094 3094 3094 3094 3094 3094 3094 3093 3092 3091 3091 3090 3089 3089 3088 3087 3086 3086 3085 3084 3083 3083 3082 3081 3081 3081 3081 3081 3080 3080 3080 3081 3080 3080
3082 3082 3083 3084 3085 3087 3089 3090 3090 3090 3089 3089 3089 3090 3090 3089 3089 3088 3086 3085 3084 3084 3083 3083 3083 3083 3081 3081 3080 3079 3078 3078 3078 3077 3077 3077 3077 3076 3077 3077 3078 3078 3078
3077 3078 3079 3080 3081 3083 3085 3085 3085 3085 3084 3083 3084 3085 3085 3085 3085 3084 3082 3081 3080 3080 3079 3079 3078 3078 3078 3077 3077 3076 3075 3075 3074 3074 3073 3073 3073 3073 3074 3074 3075 3075 3076
3073 3074 3075 3076 3077 3078 3080 3081 3081 3081 3082 3082 3081 3080 3080 3080 3080 3079 3079 3078 3077 3077 3076 3075 3075 3074 3073 3073 3072 3072 3071 3071 3071 3070 3070 3070 3070 3071 3071 3072 3072 3073 3075
Wind_Speed
20 20 18 18 18 18 21 22 22 23 22 21 20 18 18 17 16 15 15 14 14 12 12 11 12 13 13 11 10 9 8 7 8 10 9 10 10 11 9 9 8 9 9
24 21 19 20 21 19 18 20 21 22 21 22 22 21 20 20 20 18 18 19 18 17 16 14 13 13 13 13 12 11 11 11 11 11 12 12 11 11 12 11 10 11 11
21 20 24 24 23 22 20 20 21 21 21 22 23 23 22 22 21 21 20 21 21 19 18 18 18 18 15 15 15 14 13 13 14 15 15 14 14 14 14 14 14 14 15
26 24 26 27 28 26 25 23 22 21 19 21 22 23 23 25 26 25 25 25 22 21 19 19 20 20 19 19 18 16 15 14 15 17 16 17 16 15 18 18 18 20 20
25 24 23 27 28 30 32 30 29 27 24 22 23 25 25 27 27 28 27 27 25 25 23 21 20 22 22 21 21 20 18 17 17 16 18 19 20 18 19 21 23 23 24
18 19 20 23 26 27 26 27 31 32 30 30 32 29 26 27 28 28 28 28 27 24 27 25 22 22 23 23 23 23 22 22 22 20 21 21 20 22 22 24 26 25 26
11 13 13 14 17 19 20 22 26 29 34 32 31 32 34 34 31 28 29 28 27 26 26 24 24 24 24 24 23 24 24 24 25 25 25 23 23 22 24 23 24 25 26
4 5 9 13 15 16 16 17 20 25 31 36 38 40 36 34 30 27 28 29 27 26 24 24 25 26 27 27 26 27 26 28 27 27 27 27 28 26 26 27 28 29 29
3 4 6 9 14 16 17 18 19 17 22 24 29 31 31 27 27 26 28 28 27 26 25 25 26 26 26 27 29 30 30 30 29 28 29 30 30 31 31 31 32 33 34
8 8 7 7 10 13 15 17 17 16 16 18 23 22 24 27 27 27 28 27 26 25 25 26 27 29 30 29 31 32 33 31 29 33 30 32 33 33 33 35 35 35 36
11 12 13 11 11 12 13 14 15 15 14 13 13 17 18 27 34 30 26 26 28 25 27 28 30 31 33 34 34 34 33 35 34 33 34 34 37 36 36 37 40 41 42
13 16 14 12 12 13 13 14 15 15 13 10 10 12 17 19 21 28 31 29 29 30 31 34 36 37 39 40 41 40 39 39 39 38 39 39 39 40 37 38 41 48 43
16 19 15 13 12 12 13 13 14 17 18 16 14 12 10 9 14 20 26 30 33 31 30 30 31 31 35 43 46 43 42 43 42 44 45 46 44 42 45 46 51 54 52
16 17 14 13 13 13 12 12 12 13 17 20 20 19 17 16 16 16 17 17 19 21 22 24 26 28 28 25 30 40 43 46 49 50 53 53 54 55 53 48 50 51 47
17 15 12 12 12 12 11 11 12 12 13 15 16 17 17 17 17 17 17 17 17 18 21 23 26 29 31 32 32 34 37 40 42 44 42 40 37 39 39 36 38 38 42
16 15 11 9 11 13 13 12 11 11 11 12 12 12 13 14 14 14 14 15 18 20 21 23 23 24 25 27 30 33 34 36 37 38 38 35 34 34 32 34 35 26 21
16 14 10 8 9 11 13 13 12 11 11 11 11 12 14 14 15 15 16 15 15 15 16 16 17 17 17 16 16 18 20 21 22 25 26 25 25 26 23 26 23 21 26
13 12 9 7 7 7 9 11 11 11 12 12 13 14 15 15 15 14 13 14 14 15 14 13 13 15 18 19 21 18 16 14 13 11 11 11 12 11 12 14 16 19 25
12 8 7 6 6 5 6 8 8 9 9 10 12 15 18 16 16 16 15 14 14 13 12 12 13 16 15 16 14 15 13 12 10 9 3 5 1 5 1 3 6 8 9
13 9 7 6 6 5 6 6 7 7 7 8 8 7 7 15 18 17 12 13 14 14 14 11 11 12 12 10 13 12 11 8 11 12 8 6 8 6 5 4 5 11 12
14 8 8 8 7 6 6 7 7 7 7 6 6 6 7 8 10 12 14 16 17 17 16 14 13 14 11 10 12 12 10 8 8 9 9 8 7 6 7 8 10 11 11
16 11 10 10 9 9 10 10 9 9 9 8 8 9 9 9 11 12 13 14 15 16 16 16 17 16 14 14 15 8 10 10 8 9 8 7 8 6 6 7 7 8 10
19 14 12 11 9 9 10 10 10 11 11 10 10 11 11 10 11 13 14 15 16 17 18 19 19 16 15 16 13 11 11 11 9 9 12 11 10 10 9 10 11 10 9
18 15 13 13 10 10 12 12 11 10 9 9 9 10 10 9 11 14 13 13 13 14 15 15 14 13 13 13 13 14 15 15 15 15 15 12 12 12 12 11 10 10 10
17 13 13 13 13 14 14 11 10 8 7 6 9 10 9 9 10 11 10 9 9 9 9 9 8 10 12 14 14 14 15 12 12 13 12 13 13 12 11 11 11 9 9
15 15 14 14 15 15 13 11 11 8 7 9 8 9 9 10 10 9 10 9 9 9 9 9 9 10 12 12 12 11 11 11 11 12 12 11 11 11 11 10 10 10 11
Wind_Direction
225 227 233 235 235 232 236 237 236 236 240 240 239 229 227 223 222 226 237 246 252 254 262 265 252 248 245 257 266 269 266 260 271 269 264 271 276 273 270 269 273 279 293
232 229 234 233 235 236 238 241 243 241 242 246 244 234 234 237 238 232 234 240 243 248 253 256 261 251 244 249 254 263 263 262 266 270 274 270 273 272 273 277 284 290 297
219 234 242 242 241 239 238 243 247 246 244 243 247 249 244 246 243 244 241 246 245 252 252 257 255 260 252 250 253 259 268 273 270 266 270 268 268 275 279 281 286 292 298
237 242 238 237 240 241 242 246 250 248 250 255 256 255 252 251 253 253 248 247 250 253 258 265 260 256 253 257 257 257 261 265 271 269 268 275 276 278 281 281 281 283 286
236 230 234 239 241 246 249 248 246 249 253 252 260 261 260 255 253 254 257 259 262 255 254 269 263 258 261 258 261 263 261 262 264 268 273 273 278 278 276 274 275 276 279
231 246 254 248 241 243 249 250 245 245 250 260 262 257 258 260 256 254 257 259 259 257 260 272 270 264 264 265 263 266 267 264 265 270 272 274 275 279 274 276 278 280 283
228 242 248 246 239 241 246 249 250 251 251 257 255 261 260 259 253 250 251 255 257 256 258 265 266 271 268 265 265 266 269 271 270 270 272 276 274 276 279 283 282 281 282
200 241 247 244 243 246 249 251 254 255 258 261 255 256 263 246 245 249 251 253 257 258 262 265 266 266 269 270 269 268 267 267 268 275 279 277 277 278 279 281 280 280 281
288 312 273 248 244 246 250 253 254 262 263 268 257 262 240 232 243 247 251 252 254 260 264 266 267 268 267 266 269 272 273 275 277 273 275 277 276 277 277 276 278 281 279
304 317 308 278 257 247 246 248 253 260 270 270 252 245 234 234 243 244 246 251 255 260 265 268 268 268 269 268 268 272 274 274 275 277 276 277 278 278 277 277 277 279 279
301 312 312 301 281 256 250 252 254 264 269 267 249 244 252 246 238 240 247 256 261 263 266 269 272 271 270 270 271 270 273 273 272 272 274 276 278 280 281 282 281 280 278
293 308 308 292 283 270 255 250 247 247 254 258 247 257 257 259 253 245 251 259 264 266 262 267 274 275 274 270 271 272 270 269 272 275 277 277 279 282 281 283 282 287 281
289 303 301 291 276 267 260 254 248 242 240 244 249 256 266 268 258 256 258 262 267 267 266 270 272 278 282 269 263 264 265 266 270 275 278 278 277 276 281 283 279 283 287
285 296 294 292 282 273 263 259 257 248 241 245 253 259 259 258 259 261 266 271 273 274 274 278 282 286 293 296 277 269 269 268 271 273 276 278 271 272 278 281 280 282 278
286 292 293 292 283 273 268 263 257 251 247 242 244 251 255 257 259 261 263 265 269 275 282 286 288 290 290 291 287 283 279 278 277 279 278 275 274 275 278 281 282 278 269
283 284 283 282 280 278 273 264 256 252 244 241 241 241 244 248 252 255 262 270 279 285 289 292 295 299 299 295 289 286 284 281 280 279 278 279 277 274 275 273 276 278 262
280 274 275 283 281 273 267 263 253 244 242 239 237 241 247 251 252 258 268 279 286 293 302 308 309 316 315 314 314 309 302 299 295 280 273 272 270 269 268 274 269 252 237
273 272 277 285 287 276 267 256 248 245 242 240 242 247 251 255 261 266 279 290 299 301 300 308 315 323 325 330 338 338 330 327 332 313 293 282 265 254 259 255 246 232 224
269 283 283 283 271 260 247 251 252 245 242 243 251 261 250 249 255 265 269 279 290 296 298 296 305 319 322 335 349 1 0 337 328 326 341 355 194 157 149 228 222 243 236
269 278 267 272 259 248 243 240 245 242 233 237 256 271 266 252 255 259 264 272 285 295 303 299 302 331 321 323 337 334 325 345 18 29 23 83 79 106 115 139 198 191 190
270 275 248 252 246 243 245 242 239 237 236 243 261 273 280 281 273 269 275 277 276 280 285 291 294 312 305 316 332 318 327 338 301 317 314 315 307 285 262 241 231 229 224
273 264 246 243 236 234 239 243 246 248 252 258 265 275 273 276 278 281 283 278 278 280 275 283 294 299 291 295 312 310 312 287 311 316 309 311 306 282 267 259 245 235 231
264 252 245 239 237 237 240 246 252 254 257 260 264 270 271 274 281 284 283 280 277 276 277 282 287 286 282 295 292 282 277 282 288 288 300 290 275 270 257 249 251 249 231
250 245 243 239 240 249 255 261 265 264 261 265 274 274 272 276 285 289 290 289 285 281 279 281 281 278 286 288 287 284 283 279 279 277 277 271 270 265 263 261 253 233 230
240 236 239 243 246 248 252 260 264 257 260 277 279 275 279 289 292 293 295 294 291 289 286 281 280 282 284 288 289 287 284 279 272 272 269 267 267 262 258 255 246 246 238
232 235 240 245 244 245 247 249 250 252 262 271 272 272 282 291 293 291 295 298 297 295 293 289 288 289 291 291 287 282 278 276 273 268 265 256 254 258 254 241 233 224 231